Home   Weather   Cornwall   Past weeks

Flag for Canada Past Weather in Cornwall, Ontario, Canada — Yesterday and Last 2 Weeks

Now
30 °F

Chilly.


Feels Like: 20 °F
Forecast: N/A
Wind: 14 mph from Northeast

Location: St Anicet

Current Time: Jan 17, 2017 at 4:40:47 pm

Latest Report: Jan 17, 2017 at 4:00 pm


Visibility: N/A

Pressure: 30.09 "Hg

Humidity: 76%

Dew Point: 24 °F

Location of CornwallLocation

Past Weather in Cornwall — Graph

°F

Cornwall Temperature Yesterday

Maximum temperature yesterday: 38 °F (at 3:00 pm)
Minimum temperature yesterday: 10 °F (at 2:00 am)
Average temperature yesterday: 28 °F

High & Low Weather Summary for the Past Weeks

 TemperatureHumidityPressure
High50 °F (Jan 11, 10:00 pm)100% (Jan 3, 12:00 pm)30.82 "Hg (Jan 3, 12:00 pm)
Low-4 °F (Jan 9, 7:00 am)32% (Jan 11, 10:00 pm)29.28 "Hg (Jan 4, 2:00 pm)
Average22 °F77%30.15 "Hg
* Reported Jan 2 3:00 pm — Jan 17 3:00 pm, Cornwall, Weather by CustomWeather, © 2017

Note: Actual official high and low records may vary slightly from our data, if they occured in-between our weather recording intervals... More about our weather records

Advertising

Cornwall Weather History for the Previous 24 Hours

Scroll right to see more
 ConditionsComfort  
Time TempWeatherWind HumidityBarometerVisibility
3:00 pm
Tue, Jan 17
31 °FChilly.12 mph75%30.11 "HgN/A
2:00 pm32 °FChilly.16 mph77%30.12 "HgN/A
1:00 pm33 °FChilly.13 mph78%30.15 "HgN/A
12:00 pm33 °FChilly.12 mph76%30.18 "HgN/A
11:00 am32 °FChilly.10 mph79%30.21 "HgN/A
10:00 am29 °FChilly.8 mph90%30.24 "HgN/A
9:00 am24 °FCold.1 mph96%30.26 "HgN/A
8:00 am19 °FCold.1 mph98%30.27 "HgN/A
7:00 am20 °FCold.1 mph99%30.26 "HgN/A
6:00 am21 °FCold.1 mph97%30.25 "HgN/A
5:00 am23 °FCold.2 mph96%30.23 "HgN/A
4:00 am26 °FChilly.3 mph89%30.23 "HgN/A
3:00 am27 °FChilly.5 mph87%30.24 "HgN/A
2:00 am27 °FChilly.5 mph86%30.24 "HgN/A
1:00 am28 °FChilly.5 mph85%30.22 "HgN/A
12:00 am30 °FChilly.6 mph82%30.22 "HgN/A
11:00 pm
Mon, Jan 16
31 °FChilly.8 mph78%30.22 "HgN/A
10:00 pm31 °FChilly.9 mph77%30.22 "HgN/A
9:00 pm32 °FChilly.10 mph76%30.23 "HgN/A
8:00 pm32 °FChilly.9 mph77%30.22 "HgN/A
7:00 pm31 °FChilly.10 mph78%30.21 "HgN/A
6:00 pm34 °FChilly.15 mph72%30.19 "HgN/A
5:00 pm35 °FChilly.14 mph69%30.18 "HgN/A
4:00 pm38 °FChilly.15 mph62%30.17 "HgN/A
Weather by CustomWeather, © 2017

See weather overviewHow to use our weather pages